User: anonymous   Login
Location: Hartman Creek State Park
(44.3257°N, 89.2134°W)
Time: 16:00:14
(UTC-06:00)
Language:

BREEZE-M DEB (TANK) - Orbit

View from above orbital plane
View from above orbital plane
View from above satellite
View from above satellite

Ground track
Ground track

The orbit data is extracted from the following two-line orbital elements,

1 29649U 06056B   14355.46637476  .00003113  00000-0  58774-3 0   766
2 29649 049.4753 175.3248 5402882 316.6512 016.8614 04.95656013142504
Epoch (UTC): 21 December 2014 11:11:34
Eccentricity: 0.5402882
inclination: 49.4753°
perigee height: 302 km
apogee height: 16003 km
right ascension of ascending node: 175.3248°
argument of perigee: 316.6512°
revolutions per day: 4.95656013
mean anomaly at epoch: 16.8614°
orbit number at epoch: 14250

The dashed part of the orbit path shows where the satellite is in the earth's shadow,  

DLR